This is the latest recevied weather packets stored in our database for station/object K1JO. If no packets are shown the sender has not sent any weather packets the latest 10 day(s).
| Time | Temp. | Humidity | Pressure | Rain* | Wind** | Luminosity | Snow |
|---|---|---|---|---|---|---|---|
| 1777350459 | 2.22° C | 90% | 1022.5 hPa | 0 mm | - | 0 W/m² | - |
| 1777350157 | 2.22° C | 90% | 1022.6 hPa | 0 mm | - | 0 W/m² | - |
| 1777349853 | 2.22° C | 90% | 1022.8 hPa | 0 mm | - | 0 W/m² | - |
| 1777349551 | 2.78° C | 90% | 1022.7 hPa | 0 mm | - | 0 W/m² | - |
| 1777349249 | 2.78° C | 90% | 1022.7 hPa | 0 mm | - | 0 W/m² | - |
| 1777348946 | 2.78° C | 90% | 1022.8 hPa | 0 mm | - | 0 W/m² | - |
| 1777348644 | 2.78° C | 90% | 1022.8 hPa | 0 mm | - | 0 W/m² | - |
| 1777348341 | 3.33° C | 89% | 1022.6 hPa | 0 mm | - | 0 W/m² | - |
| 1777348039 | 3.89° C | 86% | 1022.5 hPa | 0 mm | - | 0 W/m² | - |
| 1777347737 | 3.89° C | 86% | 1022.3 hPa | 0 mm | - | 0 W/m² | - |
| 1777347434 | 3.89° C | 86% | 1022.4 hPa | 0 mm | - | 0 W/m² | - |
| 1777347129 | 3.89° C | 85% | 1022.4 hPa | 0 mm | - | 0 W/m² | - |
| 1777346825 | 3.89° C | 84% | 1022.6 hPa | 0 mm | - | 0 W/m² | - |
| 1777346523 | 4.44° C | 82% | 1022.3 hPa | 0 mm | - | 0 W/m² | - |
| 1777346219 | 5° C | 79% | 1022.5 hPa | 0 mm | - | 0 W/m² | - |
| 1777345916 | 5° C | 80% | 1022.5 hPa | 0 mm | - | 0 W/m² | - |
| 1777345614 | 5° C | 80% | 1022.3 hPa | 0 mm | - | 0 W/m² | - |
| 1777345310 | 5.56° C | 79% | 1022.1 hPa | 0 mm | - | 0 W/m² | - |
| 1777345007 | 5.56° C | 78% | 1022.2 hPa | 0 mm | - | 0 W/m² | - |
| 1777344703 | 5.56° C | 77% | 1022.2 hPa | 0 mm | - | 0 W/m² | - |
| 1777344399 | 6.11° C | 75% | 1022.3 hPa | 0 mm | - | 0 W/m² | - |
| 1777344097 | 6.67° C | 73% | 1022.3 hPa | 0 mm | - | 0 W/m² | - |
| 1777343794 | 6.67° C | 73% | 1022.1 hPa | 0 mm | - | 0 W/m² | - |
| 1777343492 | 6.67° C | 72% | 1022 hPa | 0 mm | - | 0 W/m² | - |
| 1777343189 | 7.22° C | 72% | 1022.2 hPa | 0 mm | - | 0 W/m² | - |
* Rain latest hour (hover to see other rain measurements)
** Current wind speed in m/s (hover to see current wind gust speed)